Location: Moscow
(55.7500°N, 37.5830°E)
Time: 17:29:09
(UTC+03:00)

ISS - Pass Details

Date: 18 March 2026
Orbit: 416 x 425 km, 51.6° (Epoch: 19 April)

Event Time Altitude Azimuth Distance (km) Brightness Sun altitude
Rises 21:03:45 0° 265° (W) 2,387 0.9 -20.2°
Reaches altitude 10° 21:05:56 10° 257° (WSW) 1,519 -0.3 -20.5°
Enters shadow 21:08:26 34° 219° (SW) 719 -2.6 -20.8°
